sat.trackr.live / text

‹ back to catalog

CMS-01

NORAD 47256 · 2020-099A

PAYLOAD ACTIVE UNKNOWN

§ Identity

Operator
Country
IND
Launch date
2020-12-17
Launch site
SRILR
Launch vehicle
Mass (kg)
RCS (m²)

Purposes: comms

External: N2YO · Heavens-Above · Gunter

§ Orbital elements

Epoch: 2026-05-25T02:25:37.886880Z

Period
1,436.12 min
Inclination
0.0236°
Eccentricity
0.0003824
Mean motion
1.00270284 rev/d
Perigee alt
35,770.9 km
Apogee alt
35,803.1 km
Semi-major
42,165.2 km
B*
0.0000e+0
RAAN
84.5149°
Arg perigee
206.1805°
Mean anomaly
71.3988°
Rev number
1,996

§ Raw data

CMS-011 47256U 20099A   26145.10113295  .00000000  00000+0  00000+0 0  99922 47256   0.0236  84.5149 0003824 206.1805  71.3988  1.00270284 19962

JSON: /api/v1/satellites/47256 · /tle

For live sub-satellite position, see the globe view (requires WebGL).

§ Visibility from observer

Set your observer location to see the next 7 days of passes ≥ 10°. The values pass through the URL so the page stays shareable.

No JS? Fill the form by hand. The geolocation button needs JavaScript.